Вернуться в каталог

STARLINK-31432

АктивенСвязьVLEO
NORAD 59932·PAYLOAD·🇺🇸 United States

Запущен Jun 1, 2024 с Cape Canaveral Space Force Station

Loading…

Ближайшие Пролёты (ближайшие 24 часа)

TLE

СвежийSource: CelesTrak SupGP

Эпоха: Sep 14, 2026, 14:21 UTC

1 59932C 24106L   26257.59840278  .00010324  00000+0  37405-3 0  2574
2 59932  43.0018 345.7861 0001362 274.3659  46.6966 15.27561837    11

Отслеживайте STARLINK-31432 в реальном времени с AllMySat

Download on the App Store